Wetbulb
70.75 73.15 76.58 77.36 77.23 77.48 77.59 77.57 77.85 77.80 77.36 78.12 77.85 77.65 77.02 77.28 77.23 77.85 77.65 77.08 76.79 77.01 76.65 76.40 75.75 75.83 76.09 76.01 74.46 74.24 75.48 75.71 75.87 75.67 75.96 76.41 76.22 76.31 75.95 75.85 76.33 74.67 76.26
71.69 73.66 77.20 77.93 78.29 77.55 77.87 78.27 78.07 77.80 77.66 77.58 78.07 77.28 77.51 77.11 77.00 77.04 77.19 76.69 76.62 77.06 76.74 76.79 75.67 76.07 76.16 75.75 75.20 74.01 75.14 75.00 75.69 75.78 75.12 75.76 76.27 76.21 77.07 76.06 76.63 75.47 76.29
72.21 74.01 76.41 78.17 78.23 78.10 77.96 78.12 77.79 77.62 77.19 77.36 77.77 77.80 76.91 76.84 77.16 76.94 76.67 76.73 76.65 76.38 76.31 76.34 76.09 75.92 75.97 75.36 75.45 74.34 74.59 74.99 74.93 75.01 75.09 70.65 73.80 76.15 76.09 76.60 76.67 76.44 76.12
72.46 73.95 75.63 77.79 78.07 77.48 78.01 78.19 77.84 76.99 77.25 77.45 77.98 77.67 77.16 77.59 77.57 76.77 76.85 77.08 76.77 76.41 76.17 75.87 75.79 75.73 75.51 75.26 75.33 74.84 73.71 74.90 74.95 74.12 72.45 72.65 73.27 75.70 76.01 76.15 75.86 76.00 75.70
72.36 74.56 75.66 78.05 78.20 78.02 77.86 78.03 78.20 77.76 77.13 77.20 77.57 76.97 77.14 77.87 77.22 76.97 76.53 76.58 76.58 76.36 76.17 76.06 75.67 75.45 75.20 74.95 74.62 74.68 74.37 74.09 74.62 74.12 72.45 70.70 70.10 74.86 75.28 75.43 75.61 75.81 75.56
73.60 75.06 77.12 77.83 77.86 78.18 77.93 78.00 77.41 77.15 76.82 77.47 77.56 77.03 77.28 77.51 77.06 76.90 76.70 76.73 76.42 76.45 76.29 76.15 75.90 75.73 75.47 75.14 74.16 74.20 74.37 74.29 74.93 72.93 72.39 73.29 71.68 75.44 76.04 76.03 75.77 75.70 75.83
73.49 75.26 76.18 78.13 78.18 78.27 78.08 77.44 77.69 77.13 77.05 77.31 77.18 76.85 77.02 77.11 77.20 76.95 76.70 76.65 76.62 76.56 76.48 76.23 76.06 75.92 75.87 75.15 74.22 74.22 74.75 74.68 72.90 72.10 72.92 72.82 73.54 76.25 75.75 75.02 74.94 74.66 75.57
73.51 74.86 75.55 77.49 78.38 78.14 77.35 77.16 77.82 77.08 76.89 77.37 77.19 76.63 76.80 76.75 77.08 77.91 76.87 76.54 76.56 76.45 76.06 75.87 75.87 75.73 75.87 75.23 74.54 74.65 75.09 75.42 73.74 72.20 72.94 73.47 75.88 76.16 75.87 75.46 75.06 75.05 75.19
73.63 74.32 74.98 75.41 76.05 77.33 78.09 77.49 77.32 76.97 77.14 77.06 76.85 76.60 76.44 76.48 76.51 76.62 76.75 77.43 76.53 76.50 76.28 75.95 75.65 75.79 75.95 75.34 74.46 75.01 74.81 75.67 72.49 72.33 73.38 73.89 76.31 76.00 75.73 75.45 75.34 75.42 75.20
73.41 74.35 74.12 74.14 74.14 74.41 74.96 77.36 77.14 77.08 77.08 76.96 76.80 76.45 76.12 75.73 75.95 76.15 77.21 77.57 76.78 76.13 75.91 75.55 75.64 76.12 76.17 75.56 75.12 74.37 74.03 75.95 71.88 72.05 72.24 74.04 76.32 76.01 75.91 75.55 75.57 75.45 75.36
72.25 73.19 73.43 73.09 72.75 73.09 73.81 75.37 76.72 77.04 77.01 76.93 76.67 76.78 75.39 74.02 73.85 74.73 75.49 76.98 76.13 75.89 75.92 75.88 77.09 77.64 76.78 75.50 75.33 75.03 74.67 71.49 72.94 71.71 72.63 75.26 76.09 75.77 75.48 75.31 75.66 75.42 75.32
70.25 71.57 72.09 72.24 72.33 72.92 74.41 73.51 73.70 74.54 73.89 73.77 73.71 67.21 68.08 70.85 73.46 75.16 76.02 77.76 76.61 76.81 77.43 77.34 75.51 76.51 75.20 72.11 73.73 75.64 72.95 71.32 71.06 71.83 72.99 76.14 76.15 74.57 75.29 74.46 75.29 75.47 75.32
70.06 70.58 70.57 72.14 72.88 72.11 72.84 72.90 73.14 72.52 72.25 72.92 71.36 70.65 67.54 74.02 73.49 73.28 72.69 72.44 65.62 71.02 72.38 73.36 72.60 72.72 72.45 72.57 72.06 73.53 73.71 72.09 71.16 71.65 74.61 76.39 76.71 75.52 75.05 74.35 73.43 74.68 75.24
69.03 69.12 70.23 71.83 72.20 71.38 71.90 71.86 72.47 72.19 72.10 71.37 72.68 71.33 67.46 72.00 68.70 71.39 72.98 71.12 70.60 70.94 71.95 72.89 72.20 72.05 71.86 72.73 72.43 71.44 73.22 71.92 70.56 72.08 74.98 76.74 76.82 75.68 75.50 75.25 74.23 73.13 73.31
68.38 68.31 70.14 71.54 71.60 71.89 71.10 70.27 70.43 71.01 72.12 72.33 73.06 72.48 72.87 71.64 69.95 73.47 73.46 71.78 71.26 71.88 71.39 73.16 72.48 71.52 69.36 68.71 70.12 68.76 71.32 70.22 70.09 71.37 72.12 76.29 76.63 76.42 75.66 74.90 75.04 74.82 74.26
68.84 68.47 71.00 71.18 72.19 72.14 73.13 71.78 70.64 73.56 71.73 74.64 75.03 74.05 73.06 73.40 72.30 72.58 72.21 72.80 73.07 71.91 69.22 72.77 72.45 72.57 71.54 70.84 69.15 68.64 69.42 69.86 69.31 70.58 72.04 73.08 76.29 76.13 76.33 75.68 74.94 74.91 74.90
68.86 70.05 70.71 71.27 72.88 72.33 71.97 72.13 73.24 72.63 71.81 70.59 74.66 73.87 73.97 72.77 72.36 72.76 73.22 72.67 72.03 72.56 71.48 73.20 72.26 70.27 68.73 69.99 67.79 66.99 69.11 69.50 69.79 70.31 71.11 71.91 73.94 76.20 76.34 76.50 75.60 75.70 75.09
70.45 70.52 71.28 72.36 72.56 72.86 72.04 72.44 72.88 72.08 72.82 72.30 74.07 73.60 73.92 74.44 74.48 71.60 71.21 72.33 72.86 73.43 73.42 71.76 71.95 70.94 68.61 70.24 67.97 66.96 67.48 67.78 69.24 70.52 70.94 71.40 71.73 72.38 75.71 76.53 76.09 76.22 75.14
70.38 70.86 71.12 71.46 71.43 72.35 72.16 73.02 72.11 72.12 72.14 72.87 74.18 73.53 73.58 74.29 75.23 72.46 71.57 70.55 68.01 73.08 73.10 72.40 70.14 70.95 69.29 70.23 67.98 67.67 65.41 66.86 68.36 70.67 69.29 70.84 70.11 71.64 71.39 75.91 75.96 75.86 75.48
69.98 70.91 70.60 71.35 71.26 71.69 73.05 72.92 71.64 71.02 72.17 72.29 72.27 73.64 74.39 74.80 75.72 74.30 72.44 70.83 71.19 72.23 73.54 72.82 69.36 66.96 66.66 66.73 68.12 67.86 65.67 66.76 66.97 67.82 69.04 71.15 69.76 69.71 70.84 72.30 72.20 73.09 75.26
70.68 70.92 70.38 71.17 71.80 71.34 72.87 71.51 71.11 69.50 70.35 71.10 71.58 74.69 74.85 74.90 75.29 74.13 72.22 72.28 72.60 72.14 70.63 72.53 69.29 68.31 67.48 66.50 66.13 65.94 64.81 66.63 66.14 67.59 67.95 70.60 69.72 69.72 70.88 70.66 71.91 70.54 72.38
70.53 70.52 70.94 71.62 72.37 71.82 72.56 71.71 71.01 71.24 70.75 71.22 71.42 73.76 75.41 75.36 75.30 75.16 73.75 73.36 73.13 72.56 72.08 71.91 70.09 68.67 66.85 66.98 65.07 63.95 60.07 62.96 64.29 65.74 67.49 69.24 69.57 69.21 69.48 70.66 70.11 70.15 70.19
70.36 70.44 71.05 71.42 73.34 72.52 72.77 72.67 71.93 71.66 71.39 70.70 70.45 70.10 74.10 74.63 74.73 75.36 74.34 73.96 72.15 73.33 71.86 71.92 70.19 69.66 64.77 66.22 67.43 62.78 61.12 60.04 63.05 64.19 63.64 66.46 66.78 65.17 66.65 69.91 70.33 69.70 70.10
70.42 71.79 71.38 72.23 73.89 73.23 73.31 72.59 71.50 70.75 69.21 69.91 69.76 70.44 72.91 74.74 75.27 75.38 75.04 74.30 73.74 73.53 72.52 72.11 72.21 69.57 66.97 63.12 63.88 68.37 66.82 66.13 60.45 58.80 64.48 63.91 65.18 64.56 65.45 67.08 68.87 69.69 68.07
70.79 71.85 71.92 72.17 73.57 73.80 73.43 72.60 72.04 70.45 69.86 69.21 70.33 69.76 71.70 72.82 74.00 76.40 74.96 74.61 73.63 73.94 72.56 72.33 72.93 70.79 68.88 67.78 63.20 63.85 64.64 65.71 65.36 61.73 59.52 61.64 64.83 65.48 66.15 66.27 66.23 66.85 66.45
71.11 72.18 72.56 72.08 72.58 73.80 73.23 73.10 71.80 70.84 69.31 69.16 67.89 68.69 71.02 73.47 74.48 75.43 75.83 75.01 75.06 74.20 73.47 73.36 72.96 71.18 71.33 70.53 68.40 64.95 63.43 61.54 63.00 62.77 62.90 61.94 63.23 65.70 66.02 65.87 66.12 66.22 66.05
MSLP
1014.93 1014.75 1014.65 1014.67 1015.01 1015.26 1015.37 1015.52 1015.73 1015.89 1016.08 1016.16 1016.24 1016.32 1016.42 1016.47 1016.47 1016.60 1016.79 1016.91 1017.06 1017.19 1017.31 1017.39 1017.48 1017.55 1017.54 1017.61 1017.76 1017.90 1018.00 1018.04 1018.13 1018.35 1018.38 1018.38 1018.52 1018.72 1018.97 1019.24 1019.36 1019.56 1019.72
1014.39 1014.73 1014.62 1014.84 1015.19 1015.47 1015.59 1015.78 1015.99 1016.21 1016.32 1016.42 1016.54 1016.60 1016.61 1016.65 1016.71 1016.88 1017.04 1017.14 1017.30 1017.35 1017.42 1017.51 1017.63 1017.65 1017.63 1017.73 1017.89 1018.10 1018.21 1018.27 1018.37 1018.42 1018.56 1018.74 1018.88 1018.96 1018.97 1019.17 1019.54 1019.76 1019.92
1014.42 1014.66 1014.69 1015.02 1015.36 1015.67 1015.85 1016.04 1016.26 1016.42 1016.55 1016.66 1016.77 1016.85 1016.86 1016.85 1016.92 1017.09 1017.25 1017.30 1017.39 1017.50 1017.59 1017.63 1017.70 1017.71 1017.71 1017.79 1018.05 1018.21 1018.30 1018.53 1018.65 1018.63 1018.78 1019.11 1019.22 1019.26 1019.41 1019.53 1019.71 1019.87 1020.09
1014.20 1014.62 1014.80 1015.11 1015.43 1015.89 1016.05 1016.29 1016.52 1016.67 1016.79 1016.96 1017.08 1017.16 1017.16 1017.19 1017.29 1017.42 1017.52 1017.56 1017.58 1017.67 1017.76 1017.80 1017.84 1017.83 1017.86 1017.88 1018.06 1018.29 1018.38 1018.65 1018.85 1018.83 1019.12 1019.34 1019.31 1019.59 1019.68 1019.85 1020.05 1020.21 1020.37
1014.04 1014.68 1015.00 1015.26 1015.63 1015.97 1016.20 1016.43 1016.72 1016.86 1017.06 1017.22 1017.36 1017.51 1017.54 1017.52 1017.61 1017.78 1017.87 1017.93 1017.98 1017.96 1017.96 1017.98 1018.05 1018.12 1018.12 1018.12 1018.16 1018.39 1018.49 1018.70 1018.89 1019.08 1019.19 1019.63 1019.62 1019.85 1019.98 1020.17 1020.22 1020.47 1020.73
1014.23 1014.76 1015.10 1015.41 1015.78 1016.10 1016.32 1016.66 1016.90 1017.07 1017.27 1017.46 1017.61 1017.73 1017.77 1017.81 1017.94 1017.95 1018.00 1018.06 1018.10 1018.12 1018.12 1018.14 1018.15 1018.19 1018.25 1018.30 1018.30 1018.36 1018.54 1018.58 1018.74 1019.20 1019.33 1019.65 1019.82 1019.97 1020.19 1020.46 1020.65 1020.75 1020.89
1014.22 1014.76 1015.30 1015.64 1015.94 1016.26 1016.50 1016.83 1017.10 1017.25 1017.48 1017.67 1017.81 1017.87 1017.92 1018.11 1018.19 1018.19 1018.15 1018.22 1018.24 1018.24 1018.25 1018.27 1018.28 1018.28 1018.38 1018.44 1018.40 1018.46 1018.70 1018.71 1018.95 1019.43 1019.48 1019.78 1019.98 1020.19 1020.40 1020.62 1020.86 1021.05 1021.13
1014.20 1014.79 1015.42 1015.91 1016.07 1016.37 1016.63 1017.02 1017.25 1017.45 1017.67 1017.93 1018.02 1018.11 1018.28 1018.28 1018.42 1018.38 1018.33 1018.39 1018.40 1018.42 1018.39 1018.42 1018.48 1018.54 1018.53 1018.63 1018.65 1018.70 1018.79 1018.95 1019.04 1019.65 1019.74 1019.96 1020.10 1020.31 1020.46 1020.78 1021.02 1021.30 1021.47
1014.01 1014.85 1015.50 1015.93 1016.16 1016.49 1016.83 1017.13 1017.42 1017.69 1017.86 1018.10 1018.25 1018.45 1018.45 1018.51 1018.46 1018.61 1018.67 1018.59 1018.47 1018.44 1018.51 1018.61 1018.66 1018.76 1018.78 1018.81 1018.81 1018.90 1018.99 1019.06 1019.49 1019.63 1019.93 1020.07 1020.20 1020.38 1020.70 1020.97 1021.24 1021.58 1021.78
1014.17 1014.81 1015.51 1016.02 1016.31 1016.72 1016.99 1017.19 1017.55 1017.78 1018.00 1018.08 1018.19 1018.34 1018.48 1018.63 1018.70 1018.72 1018.87 1018.86 1018.72 1018.54 1018.50 1018.53 1018.71 1018.73 1018.82 1018.89 1018.84 1018.83 1019.02 1018.98 1019.50 1019.76 1020.16 1020.36 1020.40 1020.59 1020.92 1021.21 1021.44 1021.72 1021.92
1014.25 1014.77 1015.35 1015.92 1016.37 1016.78 1016.99 1017.26 1017.55 1017.84 1017.99 1017.99 1018.00 1018.31 1018.65 1018.68 1018.70 1018.79 1018.93 1018.84 1018.74 1018.66 1018.48 1018.48 1018.68 1018.77 1018.84 1019.08 1019.01 1018.99 1019.29 1019.32 1019.34 1019.69 1020.17 1020.43 1020.58 1020.72 1021.04 1021.29 1021.58 1021.88 1022.01
1013.95 1014.52 1015.15 1015.57 1016.16 1016.62 1016.75 1017.27 1017.74 1017.77 1017.84 1017.96 1018.36 1018.85 1018.72 1019.02 1018.85 1018.70 1018.82 1018.84 1018.75 1018.70 1018.78 1018.65 1018.65 1018.98 1018.77 1018.88 1019.23 1019.12 1019.45 1019.69 1019.91 1020.25 1020.40 1020.38 1020.64 1020.90 1021.23 1021.56 1021.83 1021.99 1022.16
1013.43 1014.11 1014.75 1015.30 1015.75 1016.27 1016.57 1017.20 1017.50 1017.61 1017.73 1018.06 1018.29 1018.10 1018.19 1018.36 1018.49 1019.04 1019.01 1019.18 1019.36 1019.12 1019.14 1018.79 1018.63 1019.13 1019.04 1018.67 1019.04 1019.19 1019.31 1019.66 1020.18 1020.23 1020.61 1020.63 1020.71 1021.07 1021.39 1021.74 1021.99 1022.20 1022.33
1013.09 1013.65 1014.25 1014.69 1015.30 1016.02 1016.40 1016.70 1016.88 1017.24 1017.41 1017.99 1017.95 1017.36 1018.03 1018.00 1018.50 1019.47 1019.27 1019.39 1019.15 1019.21 1019.35 1019.16 1019.03 1019.05 1019.05 1018.54 1018.51 1019.07 1019.18 1019.56 1020.03 1020.27 1020.62 1020.76 1020.92 1021.11 1021.41 1021.71 1021.96 1022.12 1022.28
1012.59 1013.07 1013.71 1014.33 1014.98 1015.60 1016.10 1016.25 1016.56 1016.85 1017.12 1017.44 1018.03 1018.01 1018.57 1018.76 1018.98 1019.26 1018.98 1019.53 1019.39 1019.26 1019.21 1018.87 1018.83 1018.92 1018.80 1018.67 1018.57 1018.72 1018.89 1019.44 1019.81 1020.08 1020.61 1020.90 1021.07 1021.19 1021.34 1021.60 1021.81 1021.99 1022.17
1012.00 1012.57 1013.37 1014.00 1014.51 1015.06 1015.80 1016.12 1016.25 1016.11 1016.76 1016.79 1017.11 1017.86 1018.40 1018.58 1018.94 1018.86 1018.94 1019.14 1019.03 1019.17 1019.04 1018.68 1018.54 1018.57 1018.57 1018.62 1018.64 1018.69 1019.38 1019.33 1019.80 1020.40 1020.64 1021.04 1021.23 1021.33 1021.40 1021.48 1021.69 1021.88 1022.16
1011.29 1011.91 1012.98 1013.69 1014.13 1014.78 1015.41 1015.60 1015.72 1015.96 1016.09 1016.88 1016.72 1017.33 1017.74 1018.05 1018.61 1018.59 1018.83 1018.98 1018.71 1018.61 1018.58 1018.58 1018.88 1018.99 1018.94 1018.92 1019.05 1018.66 1019.16 1019.48 1020.02 1020.43 1020.68 1021.09 1021.27 1021.22 1021.37 1021.54 1021.65 1021.78 1021.84
1010.94 1011.62 1012.60 1013.30 1013.96 1014.48 1015.08 1015.41 1015.62 1015.98 1016.20 1016.38 1016.56 1016.97 1017.33 1017.55 1017.94 1018.59 1018.92 1018.63 1018.97 1019.01 1018.89 1018.83 1019.06 1019.16 1019.33 1019.30 1019.22 1019.11 1019.15 1019.67 1019.90 1020.12 1020.32 1020.82 1021.12 1020.95 1021.20 1021.53 1021.58 1021.64 1021.81
1010.41 1011.22 1012.11 1012.89 1013.64 1014.26 1014.86 1015.27 1015.65 1015.95 1016.17 1016.24 1016.61 1016.69 1016.97 1017.23 1017.71 1018.33 1018.69 1018.72 1018.86 1018.82 1018.49 1018.90 1019.18 1019.30 1019.41 1019.34 1019.46 1019.24 1019.41 1019.21 1019.59 1020.07 1020.25 1020.77 1020.93 1020.95 1021.21 1021.30 1021.50 1021.74 1021.96
1009.77 1010.69 1011.50 1012.38 1013.19 1013.96 1014.61 1015.20 1015.78 1016.13 1016.21 1016.18 1016.27 1016.52 1016.71 1017.08 1017.42 1017.90 1018.23 1018.44 1018.35 1018.69 1018.71 1018.83 1019.09 1019.28 1019.39 1019.34 1019.20 1019.54 1019.58 1019.13 1019.39 1020.23 1020.31 1020.41 1020.85 1021.05 1021.29 1021.31 1021.61 1021.65 1021.81
1009.29 1010.17 1010.86 1011.85 1012.82 1013.73 1014.52 1015.18 1015.86 1016.23 1016.29 1016.26 1015.99 1016.25 1016.55 1016.89 1017.17 1017.70 1018.12 1018.30 1018.59 1018.69 1018.55 1018.74 1018.89 1019.20 1019.36 1019.33 1019.82 1020.19 1019.93 1019.62 1019.81 1019.72 1020.26 1020.46 1020.84 1021.14 1021.05 1021.38 1021.55 1021.57 1021.76
1008.73 1009.50 1010.41 1011.30 1012.30 1013.16 1013.91 1014.61 1015.26 1015.75 1015.94 1015.90 1015.67 1016.14 1016.25 1016.58 1016.88 1017.24 1017.83 1018.35 1018.30 1018.51 1018.80 1018.84 1018.95 1019.29 1019.47 1019.52 1020.14 1020.33 1020.68 1020.51 1020.31 1020.01 1020.34 1020.53 1020.68 1020.98 1021.15 1021.33 1021.36 1021.54 1021.78
1008.30 1008.99 1009.81 1010.67 1011.63 1012.51 1013.35 1014.22 1014.83 1015.42 1015.70 1015.84 1015.81 1015.90 1016.17 1016.17 1016.40 1016.78 1017.32 1017.67 1017.99 1018.40 1018.62 1018.69 1018.76 1019.07 1019.46 1019.66 1019.68 1020.14 1020.88 1020.96 1020.75 1020.64 1020.38 1020.53 1020.82 1021.00 1020.99 1020.95 1021.30 1021.55 1021.86
1007.69 1008.62 1009.40 1010.19 1011.02 1011.89 1012.73 1013.60 1014.20 1014.62 1015.06 1015.29 1015.41 1015.59 1015.79 1015.91 1016.14 1016.43 1016.96 1017.35 1017.74 1017.98 1018.36 1018.44 1018.63 1018.81 1019.17 1019.66 1019.59 1019.64 1019.90 1020.21 1020.81 1021.18 1020.77 1020.81 1020.66 1020.91 1021.04 1020.99 1021.20 1021.59 1021.89
1007.02 1008.06 1008.88 1009.63 1010.51 1011.35 1012.12 1012.77 1013.50 1014.10 1014.58 1014.73 1014.99 1015.23 1015.49 1015.72 1015.79 1016.02 1016.55 1017.01 1017.54 1017.75 1018.10 1018.29 1018.58 1018.74 1018.93 1019.30 1019.49 1019.75 1019.94 1020.10 1020.35 1020.94 1021.29 1021.16 1021.19 1020.84 1020.78 1020.80 1021.06 1021.56 1021.89
1006.21 1007.43 1008.51 1009.32 1010.01 1010.62 1011.42 1012.18 1012.79 1013.49 1014.10 1014.59 1014.87 1015.22 1015.32 1015.45 1015.62 1015.68 1016.10 1016.59 1016.92 1017.33 1017.78 1018.02 1018.26 1018.51 1018.80 1019.00 1019.24 1019.50 1019.71 1020.13 1020.31 1020.54 1020.87 1021.18 1021.08 1020.98 1020.62 1020.76 1020.81 1021.16 1021.51
Wind_Speed
5 5 8 13 18 17 16 16 15 14 14 15 15 15 15 14 15 14 13 13 14 12 13 13 12 12 12 12 12 11 11 11 11 12 14 16 16 14 8 10 15 12 15
10 6 10 14 17 16 15 16 14 14 15 14 14 14 14 14 15 14 13 13 13 12 12 12 12 11 11 10 11 10 10 9 10 11 13 15 15 13 12 11 15 12 15
11 6 11 15 17 17 16 15 14 15 14 13 12 14 13 13 13 13 12 12 12 11 11 11 10 9 9 8 9 10 8 9 10 9 11 5 7 15 15 16 16 16 15
13 8 10 16 17 17 16 15 13 15 13 12 12 12 12 11 12 13 11 12 11 11 10 9 9 8 8 6 6 7 6 10 12 9 2 1 9 14 15 15 14 15 15
13 11 12 16 16 17 16 14 14 13 13 11 13 12 11 12 12 12 11 11 11 10 9 9 8 7 6 5 4 4 4 6 8 7 3 3 5 12 14 14 14 14 13
15 13 15 17 17 17 16 15 14 14 12 11 11 11 11 12 12 11 11 11 11 10 10 9 8 7 6 5 2 2 3 3 6 5 10 11 6 13 15 15 14 14 13
15 13 12 17 17 16 16 15 13 13 12 10 10 10 10 10 10 9 10 10 10 10 10 9 7 7 6 5 1 1 2 5 8 6 9 7 7 13 14 13 13 13 13
16 14 12 16 16 16 16 15 13 13 11 9 8 8 9 9 7 7 8 9 9 9 8 8 7 6 6 4 2 3 3 6 11 6 8 6 12 14 14 13 12 12 12
16 13 11 10 14 15 14 13 13 11 10 9 8 7 6 6 7 5 5 7 8 8 7 7 5 5 5 5 1 4 4 5 6 7 9 6 12 15 14 13 13 12 12
16 14 11 8 7 6 7 13 12 10 10 9 7 6 4 2 4 6 5 4 6 5 5 4 3 1 2 2 3 0 2 12 8 8 5 5 13 15 15 13 12 12 12
14 14 12 10 8 7 7 8 10 10 9 8 7 5 3 1 3 4 5 5 5 3 3 2 1 1 2 0 2 2 4 1 7 6 5 11 12 15 14 13 13 11 11
16 15 13 12 10 9 8 6 6 6 5 4 4 6 2 4 4 5 6 5 4 1 4 2 4 3 4 3 2 4 1 4 4 4 4 12 14 13 13 12 12 11 10
16 13 14 13 12 10 8 5 3 3 3 4 8 6 3 2 3 4 2 1 4 3 3 2 4 1 4 4 3 4 4 5 3 4 6 10 14 13 13 12 11 10 11
14 16 16 14 13 8 7 7 7 5 4 4 4 5 4 2 2 3 2 3 1 1 2 3 3 1 6 7 6 4 9 5 3 4 5 10 12 13 13 12 11 10 10
13 17 18 15 12 10 9 6 4 5 5 6 6 6 3 1 3 6 4 2 3 1 3 3 4 3 2 3 3 5 13 9 7 5 3 9 8 12 12 12 11 10 9
15 17 18 16 11 13 8 5 5 4 6 9 8 8 10 3 4 4 3 5 4 4 3 2 1 3 3 3 5 5 7 8 7 7 5 5 7 7 11 12 11 10 9
11 18 19 16 11 11 7 5 2 2 4 5 6 7 9 7 6 4 4 2 2 4 3 1 4 1 1 4 2 3 6 7 6 7 6 4 4 8 8 9 11 10 10
12 20 18 15 11 9 8 5 1 0 1 4 7 5 8 7 6 5 4 2 3 3 4 1 1 2 2 2 3 1 3 5 7 9 8 6 4 5 8 10 9 10 11
15 20 18 16 13 9 8 6 4 2 2 2 5 6 7 7 7 6 4 3 3 2 1 3 3 2 2 3 2 3 3 4 9 7 7 8 6 4 3 8 9 8 9
18 20 18 14 15 11 7 6 4 2 3 3 3 5 7 6 7 5 3 2 0 1 3 2 2 1 3 3 4 4 2 2 5 5 6 8 5 5 4 5 4 5 9
17 17 18 16 15 11 6 7 4 5 3 3 3 7 8 6 7 7 4 4 3 4 4 3 1 3 3 2 3 3 3 2 3 5 5 6 5 5 6 5 4 3 3
18 19 15 15 17 13 9 8 4 5 4 4 3 6 7 7 7 6 6 5 5 3 2 3 3 1 1 2 3 2 2 4 3 1 4 7 6 6 6 7 5 5 4
19 20 17 16 17 14 11 7 4 3 2 3 3 3 5 7 7 7 7 5 4 3 4 4 4 4 3 1 4 4 2 2 1 2 3 5 6 4 5 6 6 6 5
18 18 18 16 16 14 13 12 12 10 8 4 5 4 5 8 7 8 7 7 6 4 5 4 4 3 4 3 2 2 2 4 3 1 3 3 5 6 6 5 6 6 6
19 19 18 18 16 15 15 13 10 8 4 4 3 7 6 7 8 7 8 7 6 4 5 5 4 4 3 3 3 2 1 1 2 3 2 2 1 3 4 5 6 6 6
18 19 17 18 17 16 15 11 14 9 8 5 5 4 4 5 7 7 8 7 6 6 6 5 6 6 5 3 2 3 4 3 3 3 2 3 3 4 4 4 6 6 6
Wind_Direction
168 152 127 117 124 118 109 108 104 100 98 92 90 90 89 88 85 86 88 93 96 98 102 103 100 95 85 80 77 79 80 87 88 91 91 84 81 73 92 115 104 102 102
133 146 131 121 121 119 111 110 107 104 102 97 95 97 92 95 95 92 96 97 102 103 104 101 102 96 86 82 80 86 84 86 88 89 94 93 89 75 82 117 105 106 100
130 140 123 124 120 121 118 114 111 112 107 107 103 94 94 93 96 96 97 98 101 102 102 103 108 102 89 83 79 84 96 90 84 89 99 91 90 89 96 104 106 104 101
139 131 122 122 123 124 123 119 121 115 112 103 103 97 96 86 101 92 90 99 95 98 103 105 102 101 97 92 88 85 107 105 95 60 79 4 98 94 96 100 104 106 105
140 123 131 127 129 131 124 125 115 115 108 110 99 99 92 89 90 92 92 91 93 95 97 99 100 99 102 109 111 112 81 96 119 144 136 123 96 101 99 103 105 109 109
123 123 128 135 135 131 127 122 122 117 118 107 103 102 92 93 90 95 99 100 101 100 99 97 99 100 103 110 137 156 86 62 123 92 96 99 100 108 102 100 106 107 114
124 126 129 134 137 130 126 129 127 125 119 116 115 109 102 89 89 97 97 99 100 95 91 90 89 94 103 111 109 14 96 43 84 108 103 100 102 110 108 108 108 110 106
129 127 133 137 135 129 133 133 131 126 124 122 117 112 106 106 97 94 108 110 103 96 93 91 89 94 112 111 79 61 68 42 110 107 106 103 106 110 109 105 107 108 104
130 128 132 139 135 138 136 136 132 128 127 123 117 112 116 118 120 117 109 115 107 99 93 89 87 90 115 127 12 355 52 60 115 115 117 116 117 113 112 107 110 108 111
131 133 141 142 128 133 136 141 138 137 131 129 132 129 124 142 151 147 149 122 108 108 104 101 94 58 96 153 205 207 51 87 100 111 112 122 119 115 114 116 116 119 113
141 144 146 149 150 145 137 150 149 145 147 154 162 146 31 309 223 189 212 158 130 121 137 121 151 234 277 290 278 275 93 31 112 116 130 134 128 124 121 114 114 116 121
151 151 154 157 160 150 156 145 151 174 179 174 109 74 88 333 281 183 158 168 127 104 331 49 312 327 269 197 203 261 341 80 72 108 134 146 135 130 126 121 119 122 113
156 157 160 160 162 166 143 167 174 185 182 149 123 175 117 50 43 18 81 117 10 31 320 345 303 312 267 264 175 179 216 145 144 120 152 148 139 137 132 128 128 125 121
167 165 164 162 170 154 158 179 180 176 178 146 178 161 110 149 190 111 262 165 256 121 273 250 277 281 254 270 223 216 186 138 129 121 159 158 145 145 142 140 138 137 139
179 170 166 166 164 153 166 192 173 188 173 165 179 177 88 129 246 206 195 138 257 252 237 225 226 168 303 18 132 81 132 145 145 141 138 154 156 151 153 152 154 154 153
182 169 162 169 163 156 168 171 197 196 153 169 184 144 153 124 236 198 199 176 199 212 232 191 87 49 341 19 357 74 139 149 143 137 142 149 159 151 161 162 167 169 167
186 157 161 168 160 150 150 142 107 77 146 143 166 151 154 169 186 137 105 111 229 275 213 173 86 66 261 341 325 42 124 148 131 131 129 141 150 167 179 175 174 176 178
182 156 159 166 159 147 143 143 145 46 348 133 149 160 153 160 127 127 99 168 144 282 243 205 80 214 198 208 225 41 111 122 139 138 158 144 176 179 181 186 191 190 189
174 156 161 163 163 151 150 147 172 231 303 275 169 163 165 161 144 125 165 192 199 227 203 172 221 156 231 259 302 104 145 166 127 159 156 152 174 179 153 184 189 199 203
162 161 162 163 164 160 149 139 159 208 269 258 177 183 162 162 158 140 179 219 214 293 130 173 172 131 162 197 182 109 176 122 107 156 166 160 188 143 153 163 171 197 207
163 159 168 152 162 161 155 159 160 193 215 239 225 169 165 166 164 146 175 203 241 213 188 171 126 89 35 56 73 36 340 3 89 135 136 151 166 171 164 171 181 175 202
166 166 162 153 161 168 170 173 157 175 195 202 213 167 173 170 174 159 167 190 198 189 228 203 144 88 143 147 124 76 18 348 2 55 128 158 162 166 176 177 185 172 165
168 172 167 164 161 166 163 160 164 177 192 179 206 187 193 174 170 164 177 186 194 168 191 176 155 158 140 20 133 140 97 210 180 305 115 151 161 149 167 169 168 172 164
174 173 171 166 162 166 162 173 187 201 204 186 181 188 181 174 181 179 179 183 188 183 190 193 169 169 118 160 24 93 127 151 138 29 350 123 157 171 158 170 150 168 160
171 174 175 173 169 169 176 181 184 194 179 182 174 183 182 191 188 182 179 179 190 170 185 195 177 165 156 150 166 151 142 146 111 122 208 286 345 235 174 167 159 162 165
170 171 173 177 178 173 180 177 192 186 186 186 196 189 184 192 195 191 178 173 181 172 187 198 189 176 169 143 182 177 158 157 204 155 145 203 189 233 203 169 175 168 167